Location: Kumla
(59.1265°N, 15.1401°E)
Time: 21:23:22
(UTC+01:00)

Transit 2A - Pass Details

Date: 06 December 2023
Orbit: 600 x 953 km, 66.7° (Epoch: 24 February)

Event Time Altitude Azimuth Distance (km) Brightness Sun altitude
Rises 17:07:02 0° 239° (WSW) 3,087 11.0 -13.9°
Reaches altitude 10° 17:09:29 10° 243° (WSW) 2,120 9.7 -14.1°
Maximum altitude 17:14:12 65° 326° (NW) 707 5.9 -14.7°
Enters shadow 17:17:01 22° 43° (NE) 1,371 6.8 -15.1°
Drops below altitude 10° 17:18:38 10° 49° (NE) 1,985 - -15.3°
Sets 17:20:51 0° 52° (NE) 2,873 - -15.5°
